Starlink 11120

operational
NORAD ID: 60042 Int'l Des: 2024-112 Owner: SPXS Country: US Constellation: starlink
LEOCIRCULAR

About Starlink 11120

Description loading...

Live Position

Loading 3D Globe...

Upcoming Passes

Altitude History

Altitude vs Time

uPlot chart will show altitude changes over time

Two-Line Element Set

1 60042U 24112E 25353.17365649 -.00002886 00000-0 -18966-4 0 9991
2 60042 53.1594 303.2851 0001134 75.0034 285.1110 15.69712640 88332
Epoch: Dec 19, 2025 • Age: 12 hours

Current Status

Altitude 359.6 km
Velocity 7.70 km/s
Sub-Earth Point 8.34°N, 28.03°W
Launch Date Jun 8, 2024
Age 1.5 years
Type internet

Technical Details

Classification Payload
Mass 960.00 kg
Dry Mass 910.00 kg
Total Mass 960.00 kg
Length 0.30 m
Diameter 4.10 m
Span 29.00 m
Shape Box + pan
Manufacturer SPXS
Bus Type Starlink V2MD
Phase Status In Orbit
Owner/State SPXS/US

Large Constellations

Loading constellations...